| time (UTC) | temp F | wind direction | speed knots | gust knots | rain 1hr in | rain 24hr in | rain mn in | humidity % | barometer mb |
| 20260903145632 | 85 | 133 | 0.9 | 2.6 | 0.00 | 0.00 | 0.00 | 79 | 1014.9 |
| 20260903145127 | 85 | 72 | 0.0 | 1.7 | 0.00 | 0.00 | 0.00 | 79 | 1014.9 |
| 20260903144626 | 85 | 108 | 0.0 | 1.7 | 0.00 | 0.00 | 0.00 | 79 | 1015.0 |
| 20260903144122 | 85 | 355 | 1.7 | 3.5 | 0.00 | 0.00 | 0.00 | 78 | 1014.8 |
| 20260903143618 | 85 | 297 | 0.9 | 1.7 | 0.00 | 0.00 | 0.00 | 81 | 1014.9 |
| 20260903143114 | 84 | 188 | 0.0 | 2.6 | 0.00 | 0.00 | 0.00 | 81 | 1014.6 |
| 20260903142609 | 84 | 99 | 1.7 | 2.6 | 0.00 | 0.00 | 0.00 | 83 | 1014.5 |
| 20260903142106 | 84 | 331 | 0.0 | 2.6 | 0.00 | 0.00 | 0.00 | 82 | 1014.6 |
| 20260903141601 | 84 | 223 | 0.0 | 1.7 | 0.00 | 0.00 | 0.00 | 82 | 1014.5 |
| 20260903141056 | 84 | 341 | 0.0 | 2.6 | 0.00 | 0.00 | 0.00 | 82 | 1014.5 |
| 20260903140552 | 84 | 126 | 0.0 | 1.7 | 0.00 | 0.00 | 0.00 | 83 | 1014.8 |
| 20260903140047 | 84 | 201 | 0.9 | 1.7 | 0.00 | 0.00 | 0.00 | 85 | 1014.6 |
| 20260903135542 | 84 | 101 | 0.0 | 1.7 | 0.00 | 0.00 | 0.00 | 84 | 1014.7 |
| 20260903135037 | 83 | 161 | 0.9 | 0.9 | 0.00 | 0.00 | 0.00 | 87 | 1015.0 |
| 20260903134536 | 83 | 197 | 0.0 | 1.7 | 0.00 | 0.00 | 0.00 | 87 | 1014.9 |
| 20260903134033 | 83 | 70 | 0.0 | 1.7 | 0.00 | 0.00 | 0.00 | 87 | 1014.8 |
| 20260903133530 | 83 | 28 | 0.9 | 2.6 | 0.00 | 0.00 | 0.00 | 88 | 1014.7 |
| 20260903133025 | 82 | 73 | 0.9 | 2.6 | 0.00 | 0.00 | 0.00 | 88 | 1014.6 |
| 20260903132520 | 83 | 96 | 0.9 | 3.5 | 0.00 | 0.00 | 0.00 | 89 | 1014.8 |
| 20260903132015 | 82 | 61 | 0.0 | 1.7 | 0.00 | 0.00 | 0.00 | 89 | 1014.7 |
| 20260903131510 | 82 | 131 | 0.0 | 1.7 | 0.00 | 0.00 | 0.00 | 90 | 1014.7 |
| 20260903131009 | 82 | 192 | 0.0 | 0.9 | 0.00 | 0.00 | 0.00 | 91 | 1014.4 |
| 20260903130504 | 82 | 353 | 0.0 | 2.6 | 0.00 | 0.00 | 0.00 | 92 | 1014.5 |
| 20260903130003 | 81 | 79 | 0.9 | 0.9 | 0.00 | 0.00 | 0.00 | 93 | 1014.8 |
| 20260903125502 | 81 | 227 | 0.0 | 0.9 | 0.00 | 0.00 | 0.00 | 94 | 1014.8 |
| 20260903124957 | 81 | 105 | 0.0 | 0.9 | 0.00 | 0.00 | 0.00 | 94 | 1014.8 |
| 20260903124452 | 81 | 236 | 0.0 | 0.9 | 0.00 | 0.00 | 0.00 | 94 | 1014.7 |
| 20260903123951 | 80 | 34 | 0.0 | 1.7 | 0.00 | 0.00 | 0.00 | 95 | 1014.8 |
| 20260903123446 | 80 | 137 | 0.0 | 0.9 | 0.00 | 0.00 | 0.00 | 95 | 1014.8 |
| 20260903122944 | 80 | 317 | 0.0 | 1.7 | 0.00 | 0.00 | 0.00 | 96 | 1014.9 |
| 20260903122444 | 80 | 198 | 0.0 | 0.0 | 0.00 | 0.00 | 0.00 | 97 | 1014.6 |
| 20260903121943 | 79 | 356 | 0.0 | 0.9 | 0.00 | 0.00 | 0.00 | 97 | 1014.8 |
| 20260903121438 | 79 | 134 | 0.0 | 0.9 | 0.00 | 0.00 | 0.00 | 97 | 1014.7 |
| 20260903120935 | 79 | 57 | 0.9 | 0.9 | 0.00 | 0.00 | 0.00 | 97 | 1014.6 |
| 20260903120433 | 79 | 22 | 0.9 | 1.7 | 0.00 | 0.00 | 0.00 | 97 | 1014.7 |
| 20260903115932 | 79 | 58 | 0.0 | 0.0 | 0.00 | 0.00 | 0.00 | 98 | 1014.6 |
| 20260903115432 | 79 | 20 | 0.0 | 0.0 | 0.00 | 0.00 | 0.00 | 98 | 1014.5 |
| 20260903114927 | 78 | 194 | 0.0 | 0.9 | 0.00 | 0.00 | 0.00 | 98 | 1014.5 |
| 20260903114422 | 78 | 352 | 0.0 | 0.9 | 0.00 | 0.00 | 0.00 | 98 | 1014.2 |
| 20260903113918 | 78 | 186 | 0.0 | 0.9 | 0.00 | 0.00 | 0.00 | 98 | 1014.4 |
| 20260903113413 | 78 | 130 | 0.0 | 0.9 | 0.00 | 0.00 | 0.00 | 98 | 1014.2 |
| 20260903112909 | 78 | 94 | 0.0 | 0.0 | 0.00 | 0.00 | 0.00 | 98 | 1014.0 |
| 20260903112405 | 78 | 57 | 0.0 | 0.0 | 0.00 | 0.00 | 0.00 | 98 | 1013.9 |
| 20260903111903 | 78 | 31 | 0.0 | 0.0 | 0.00 | 0.00 | 0.00 | 98 | 1013.9 |
| 20260903111403 | 78 | 205 | 0.0 | 0.9 | 0.00 | 0.00 | 0.00 | 98 | 1013.7 |
| 20260903110859 | 78 | 174 | 0.9 | 1.7 | 0.00 | 0.00 | 0.00 | 98 | 1013.5 |
| 20260903110355 | 78 | 226 | 0.0 | 0.0 | 0.00 | 0.00 | 0.00 | 98 | 1013.7 |
| 20260903105850 | 78 | 134 | 0.0 | 0.0 | 0.00 | 0.00 | 0.00 | 98 | 1013.6 |
| 20260903105345 | 77 | 198 | 0.0 | 0.0 | 0.00 | 0.00 | 0.00 | 98 | 1013.8 |
| 20260903104844 | 78 | 127 | 0.0 | 0.9 | 0.00 | 0.00 | 0.00 | 98 | 1013.6 |
| 20260903104339 | 77 | 13 | 0.0 | 0.0 | 0.00 | 0.00 | 0.00 | 98 | 1013.4 |
| 20260903103836 | 78 | 18 | 0.0 | 0.9 | 0.00 | 0.00 | 0.00 | 98 | 1013.4 |
| 20260903103332 | 78 | 354 | 0.9 | 0.9 | 0.00 | 0.00 | 0.00 | 98 | 1013.3 |
| 20260903102827 | 78 | 174 | 0.0 | 0.9 | 0.00 | 0.00 | 0.00 | 98 | 1013.2 |
| 20260903102321 | 78 | 55 | 0.0 | 0.9 | 0.00 | 0.00 | 0.00 | 98 | 1013.3 |
| 20260903101821 | 78 | 70 | 0.0 | 1.7 | 0.00 | 0.00 | 0.00 | 98 | 1013.4 |
| 20260903101316 | 78 | 65 | 0.0 | 0.0 | 0.00 | 0.00 | 0.00 | 99 | 1013.1 |
| 20260903100811 | 78 | 341 | 0.0 | 0.9 | 0.00 | 0.00 | 0.00 | 99 | 1013.3 |
| 20260903100306 | 78 | 19 | 0.0 | 0.0 | 0.00 | 0.00 | 0.00 | 99 | 1013.1 |
| 20260903095803 | 78 | 119 | 1.7 | 1.7 | 0.00 | 0.00 | 0.00 | 99 | 1013.0 |
| 20260903095257 | 78 | 94 | 0.0 | 0.0 | 0.00 | 0.00 | 0.00 | 99 | 1013.2 |
| 20260903094753 | 79 | 6 | 0.0 | 1.7 | 0.00 | 0.00 | 0.00 | 99 | 1013.3 |
| 20260903094247 | 79 | 46 | 0.0 | 1.7 | 0.00 | 0.00 | 0.00 | 99 | 1013.1 |
| 20260903093743 | 78 | 22 | 0.9 | 0.9 | 0.00 | 0.00 | 0.00 | 99 | 1013.0 |
| 20260903093239 | 78 | 334 | 0.0 | 0.9 | 0.00 | 0.00 | 0.00 | 99 | 1013.1 |
| 20260903092738 | 78 | 175 | 0.9 | 0.9 | 0.00 | 0.00 | 0.00 | 99 | 1013.1 |
| 20260903092233 | 78 | 176 | 0.0 | 0.0 | 0.00 | 0.00 | 0.00 | 99 | 1013.2 |
| 20260903091732 | 78 | 190 | 0.0 | 0.0 | 0.00 | 0.00 | 0.00 | 99 | 1013.2 |
| 20260903091226 | 78 | 18 | 0.0 | 0.0 | 0.00 | 0.00 | 0.00 | 99 | 1013.0 |
| 20260903090722 | 78 | 143 | 0.0 | 0.9 | 0.00 | 0.00 | 0.00 | 99 | 1013.0 |
| 20260903090220 | 78 | 43 | 0.0 | 0.0 | 0.00 | 0.00 | 0.00 | 98 | 1013.0 |
| 20260903085720 | 78 | 123 | 0.0 | 0.0 | 0.00 | 0.00 | 0.00 | 98 | 1012.9 |
| 20260903085215 | 78 | 123 | 0.0 | 0.0 | 0.00 | 0.00 | 0.00 | 98 | 1013.0 |
| 20260903084712 | 78 | 25 | 0.0 | 0.0 | 0.00 | 0.00 | 0.00 | 99 | 1013.0 |
| 20260903084208 | 78 | 25 | 0.0 | 0.0 | 0.00 | 0.00 | 0.00 | 98 | 1013.0 |
| 20260903083704 | 78 | 25 | 0.0 | 0.9 | 0.00 | 0.00 | 0.00 | 99 | 1013.1 |
| 20260903083203 | 78 | 13 | 0.0 | 0.0 | 0.00 | 0.00 | 0.00 | 98 | 1013.0 |
| 20260903082657 | 78 | 13 | 0.0 | 0.0 | 0.00 | 0.00 | 0.00 | 98 | 1013.0 |
| 20260903082154 | 78 | 13 | 0.0 | 0.0 | 0.00 | 0.00 | 0.00 | 98 | 1013.2 |
| 20260903081653 | 78 | 13 | 0.0 | 0.0 | 0.00 | 0.00 | 0.00 | 98 | 1013.0 |
| 20260903081149 | 78 | 98 | 0.0 | 0.0 | 0.00 | 0.00 | 0.00 | 98 | 1013.1 |
| 20260903080645 | 78 | 98 | 0.0 | 0.0 | 0.00 | 0.00 | 0.00 | 98 | 1013.0 |
| 20260903080143 | 78 | 98 | 0.0 | 0.0 | 0.00 | 0.00 | 0.00 | 98 | 1013.6 |
| 20260903075642 | 78 | 98 | 0.0 | 0.0 | 0.00 | 0.00 | 0.00 | 98 | 1013.4 |
| 20260903075137 | 78 | 98 | 0.0 | 0.0 | 0.00 | 0.00 | 0.00 | 98 | 1013.4 |
| 20260903074636 | 79 | 98 | 0.0 | 0.0 | 0.00 | 0.00 | 0.00 | 98 | 1013.3 |
| 20260903074132 | 78 | 98 | 0.0 | 0.0 | 0.00 | 0.00 | 0.00 | 98 | 1013.3 |
| 20260903073626 | 78 | 98 | 0.0 | 0.0 | 0.00 | 0.00 | 0.00 | 98 | 1013.2 |
| 20260903073122 | 79 | 98 | 0.0 | 0.0 | 0.00 | 0.00 | 0.00 | 98 | 1013.2 |
| 20260903072618 | 78 | 98 | 0.0 | 0.0 | 0.00 | 0.00 | 0.00 | 98 | 1013.4 |
| 20260903072114 | 79 | 98 | 0.0 | 0.0 | 0.00 | 0.00 | 0.00 | 98 | 1013.5 |
| 20260903071611 | 79 | 98 | 0.0 | 0.0 | 0.00 | 0.00 | 0.00 | 98 | 1013.6 |
| 20260903071110 | 78 | 98 | 0.0 | 0.0 | 0.00 | 0.00 | 0.00 | 98 | 1013.6 |
| 20260903070605 | 78 | 98 | 0.0 | 0.0 | 0.00 | 0.00 | 0.00 | 98 | 1013.6 |
| 20260903065600 | 79 | 98 | 0.0 | 0.0 | 0.00 | 0.00 | 0.00 | 98 | 1013.5 |
| 20260903065054 | 79 | 98 | 0.0 | 0.0 | 0.00 | 0.00 | 0.00 | 98 | 1013.7 |
| 20260903064555 | 79 | 98 | 0.0 | 0.0 | 0.00 | 0.00 | 0.00 | 98 | 1013.4 |
| 20260903064050 | 79 | 303 | 0.0 | 0.0 | 0.00 | 0.00 | 0.00 | 98 | 1013.5 |
| 20260903063545 | 79 | 303 | 0.0 | 0.0 | 0.00 | 0.00 | 0.00 | 98 | 1013.5 |
| 20260903063041 | 79 | 303 | 0.0 | 0.0 | 0.00 | 0.00 | 0.00 | 98 | 1013.6 |
| 20260903062536 | 79 | 303 | 0.0 | 0.0 | 0.00 | 0.00 | 0.00 | 98 | 1013.8 |
| 20260903062031 | 79 | 303 | 0.0 | 0.0 | 0.00 | 0.00 | 0.00 | 98 | 1013.8 |
| 20260903061527 | 79 | 303 | 0.0 | 0.0 | 0.00 | 0.00 | 0.00 | 98 | 1013.7 |
| 20260903061027 | 79 | 123 | 0.0 | 0.0 | 0.00 | 0.00 | 0.00 | 98 | 1014.1 |
| 20260903060526 | 79 | 123 | 0.0 | 0.0 | 0.00 | 0.00 | 0.00 | 98 | 1014.1 |
| 20260903060021 | 79 | 211 | 0.0 | 0.0 | 0.00 | 0.00 | 0.00 | 98 | 1014.0 |
| 20260903055519 | 79 | 211 | 0.0 | 0.0 | 0.00 | 0.00 | 0.00 | 98 | 1014.0 |
| 20260903055018 | 79 | 211 | 0.0 | 0.0 | 0.00 | 0.00 | 0.00 | 98 | 1014.1 |
| 20260903054513 | 79 | 211 | 0.0 | 0.0 | 0.00 | 0.00 | 0.00 | 98 | 1014.3 |
| 20260903054008 | 79 | 211 | 0.0 | 0.0 | 0.00 | 0.00 | 0.00 | 98 | 1014.5 |
| 20260903053503 | 80 | 242 | 0.0 | 0.0 | 0.00 | 0.00 | 0.00 | 98 | 1014.5 |
| 20260903052959 | 80 | 107 | 0.0 | 0.9 | 0.00 | 0.00 | 0.00 | 98 | 1014.4 |
| 20260903052455 | 80 | 85 | 0.0 | 0.0 | 0.00 | 0.00 | 0.00 | 98 | 1014.3 |
| 20260903051950 | 80 | 85 | 0.0 | 0.0 | 0.00 | 0.00 | 0.00 | 98 | 1014.4 |
| 20260903051445 | 80 | 198 | 0.0 | 0.0 | 0.00 | 0.00 | 0.00 | 98 | 1014.5 |
| 20260903050941 | 80 | 133 | 0.9 | 0.9 | 0.00 | 0.00 | 0.00 | 98 | 1014.5 |
| 20260903050439 | 79 | 85 | 0.0 | 0.0 | 0.00 | 0.00 | 0.00 | 98 | 1014.5 |
| 20260903045934 | 79 | 85 | 0.0 | 0.0 | 0.00 | 0.00 | 0.00 | 98 | 1014.7 |
| 20260903045430 | 79 | 98 | 0.0 | 0.0 | 0.00 | 0.00 | 0.00 | 98 | 1014.6 |
| 20260903044926 | 79 | 308 | 0.0 | 0.0 | 0.00 | 0.00 | 0.00 | 98 | 1014.6 |
| 20260903044427 | 79 | 308 | 0.0 | 0.0 | 0.00 | 0.00 | 0.00 | 98 | 1014.5 |
| 20260903043923 | 79 | 137 | 0.0 | 0.0 | 0.00 | 0.00 | 0.00 | 98 | 1014.4 |
| 20260903043419 | 79 | 98 | 0.0 | 0.0 | 0.00 | 0.00 | 0.00 | 98 | 1014.6 |
| 20260903042917 | 79 | 98 | 0.0 | 0.0 | 0.00 | 0.00 | 0.00 | 98 | 1014.8 |
| 20260903042413 | 79 | 87 | 0.0 | 0.0 | 0.00 | 0.00 | 0.00 | 98 | 1014.5 |
| 20260903041908 | 79 | 123 | 0.0 | 0.0 | 0.00 | 0.00 | 0.00 | 98 | 1014.6 |
| 20260903041404 | 79 | 91 | 0.0 | 0.0 | 0.00 | 0.00 | 0.00 | 98 | 1014.4 |
| 20260903040900 | 79 | 98 | 0.0 | 0.0 | 0.00 | 0.00 | 0.00 | 98 | 1014.3 |
| 20260903040359 | 79 | 85 | 0.0 | 0.0 | 0.00 | 0.00 | 0.00 | 98 | 1014.5 |
| 20260903035855 | 79 | 96 | 0.0 | 0.0 | 0.00 | 0.38 | 0.38 | 98 | 1014.6 |
| 20260903035350 | 79 | 25 | 0.0 | 0.0 | 0.00 | 0.38 | 0.38 | 98 | 1014.7 |
| 20260903034845 | 79 | 144 | 0.0 | 0.0 | 0.00 | 0.38 | 0.38 | 98 | 1014.7 |
| 20260903034341 | 79 | 144 | 0.0 | 0.9 | 0.00 | 0.38 | 0.38 | 98 | 1014.7 |
| 20260903033836 | 79 | 20 | 0.0 | 0.9 | 0.00 | 0.38 | 0.38 | 98 | 1014.7 |
| 20260903033331 | 79 | 223 | 0.0 | 0.0 | 0.00 | 0.38 | 0.38 | 98 | 1014.7 |
| 20260903032830 | 79 | 186 | 0.0 | 0.0 | 0.00 | 0.38 | 0.38 | 98 | 1014.6 |
| 20260903032327 | 79 | 193 | 0.0 | 1.7 | 0.00 | 0.38 | 0.38 | 98 | 1014.5 |
| 20260903031821 | 79 | 183 | 0.0 | 0.9 | 0.00 | 0.38 | 0.38 | 98 | 1014.8 |
| 20260903031321 | 79 | 107 | 0.0 | 0.0 | 0.00 | 0.38 | 0.38 | 98 | 1014.8 |
| 20260903030817 | 79 | 127 | 0.0 | 0.9 | 0.00 | 0.38 | 0.38 | 98 | 1014.8 |
| 20260903030313 | 79 | 41 | 0.0 | 0.0 | 0.00 | 0.38 | 0.38 | 98 | 1014.9 |
| 20260903025808 | 80 | 41 | 0.0 | 0.0 | 0.00 | 0.38 | 0.38 | 98 | 1014.9 |
| 20260903025306 | 80 | 205 | 0.0 | 0.0 | 0.00 | 0.38 | 0.38 | 98 | 1014.9 |
| 20260903024758 | 80 | 6 | 0.0 | 0.0 | 0.00 | 0.38 | 0.38 | 98 | 1014.8 |
| 20260903024257 | 80 | 56 | 0.0 | 0.0 | 0.00 | 0.38 | 0.38 | 98 | 1015.0 |
| 20260903023752 | 79 | 98 | 0.0 | 0.0 | 0.00 | 0.38 | 0.38 | 98 | 1015.0 |
| 20260903023249 | 79 | 94 | 0.0 | 0.0 | 0.00 | 0.38 | 0.38 | 98 | 1015.0 |
| 20260903022749 | 79 | 98 | 0.0 | 0.9 | 0.00 | 0.38 | 0.38 | 98 | 1014.9 |
| 20260903022247 | 79 | 85 | 0.0 | 0.0 | 0.00 | 0.38 | 0.38 | 98 | 1015.0 |
| 20260903021747 | 79 | 105 | 0.0 | 0.0 | 0.02 | 0.38 | 0.38 | 98 | 1015.0 |
| 20260903021242 | 79 | 105 | 0.0 | 0.0 | 0.02 | 0.38 | 0.38 | 98 | 1014.8 |
| 20260903020737 | 79 | 105 | 0.0 | 0.0 | 0.00 | 0.37 | 0.37 | 98 | 1015.0 |
| 20260903020231 | 78 | 116 | 0.0 | 0.0 | 0.00 | 0.37 | 0.37 | 98 | 1015.0 |
| 20260903015727 | 78 | 98 | 0.0 | 0.0 | 0.00 | 0.37 | 0.37 | 98 | 1015.0 |
| 20260903015222 | 78 | 116 | 0.0 | 0.0 | 0.00 | 0.37 | 0.37 | 98 | 1015.0 |
| 20260903014718 | 78 | 116 | 0.0 | 0.0 | 0.00 | 0.37 | 0.37 | 98 | 1014.8 |
| 20260903014217 | 78 | 116 | 0.0 | 0.0 | 0.00 | 0.37 | 0.37 | 97 | 1014.8 |
| 20260903013712 | 78 | 116 | 0.0 | 0.0 | 0.00 | 0.37 | 0.37 | 97 | 1014.8 |
| 20260903013211 | 78 | 116 | 0.0 | 0.0 | 0.00 | 0.37 | 0.37 | 97 | 1015.0 |
| 20260903012709 | 78 | 110 | 0.0 | 0.0 | 0.00 | 0.37 | 0.37 | 97 | 1014.9 |
| 20260903012204 | 78 | 110 | 0.0 | 0.0 | 0.00 | 0.37 | 0.37 | 97 | 1014.9 |
| 20260903011658 | 78 | 110 | 0.0 | 0.0 | 0.00 | 0.37 | 0.37 | 97 | 1014.8 |
| 20260903011152 | 78 | 137 | 0.0 | 0.0 | 0.00 | 0.37 | 0.37 | 97 | 1014.8 |
| 20260903010648 | 78 | 31 | 0.0 | 0.0 | 0.00 | 0.37 | 0.37 | 97 | 1014.9 |
| 20260903010147 | 78 | 31 | 0.0 | 0.0 | 0.00 | 0.37 | 0.37 | 97 | 1014.7 |
| 20260903005647 | 78 | 315 | 0.0 | 0.9 | 0.00 | 0.37 | 0.37 | 97 | 1014.6 |
| 20260903005142 | 78 | 175 | 0.9 | 0.9 | 0.00 | 0.37 | 0.37 | 97 | 1014.5 |
| 20260903004637 | 78 | 127 | 0.0 | 0.0 | 0.00 | 0.37 | 0.37 | 97 | 1014.6 |
| 20260903004132 | 78 | 180 | 0.0 | 0.0 | 0.00 | 0.37 | 0.37 | 97 | 1014.7 |
| 20260903003628 | 78 | 180 | 0.0 | 0.0 | 0.00 | 0.37 | 0.37 | 97 | 1014.5 |
| 20260903003123 | 78 | 180 | 0.0 | 0.0 | 0.00 | 0.37 | 0.37 | 97 | 1014.5 |
| 20260903002618 | 78 | 122 | 0.0 | 0.0 | 0.00 | 0.37 | 0.37 | 97 | 1014.5 |
| 20260903002118 | 78 | 31 | 0.0 | 0.0 | 0.00 | 0.37 | 0.37 | 97 | 1014.4 |
| 20260903001613 | 78 | 18 | 0.0 | 0.0 | 0.00 | 0.37 | 0.37 | 96 | 1014.4 |
| 20260903001107 | 78 | 18 | 0.0 | 0.0 | 0.00 | 0.37 | 0.37 | 96 | 1014.6 |
| 20260903000603 | 78 | 303 | 0.0 | 0.0 | 0.00 | 0.37 | 0.37 | 96 | 1014.4 |
| 20260902235601 | 78 | 274 | 0.0 | 0.0 | 0.00 | 0.37 | 0.37 | 96 | 1014.2 |
| 20260902235056 | 78 | 153 | 0.0 | 0.0 | 0.00 | 0.37 | 0.37 | 96 | 1014.2 |
| 20260902234550 | 78 | 18 | 0.0 | 0.0 | 0.00 | 0.37 | 0.37 | 96 | 1014.3 |
| 20260902234049 | 78 | 18 | 0.0 | 0.9 | 0.00 | 0.37 | 0.37 | 96 | 1014.5 |
| 20260902233544 | 78 | 229 | 0.0 | 0.9 | 0.00 | 0.37 | 0.37 | 95 | 1014.3 |
| 20260902233038 | 78 | 193 | 0.0 | 0.0 | 0.00 | 0.37 | 0.37 | 95 | 1014.5 |
| 20260902232538 | 78 | 189 | 0.9 | 0.9 | 0.00 | 0.37 | 0.37 | 95 | 1014.1 |
| 20260902232032 | 78 | 70 | 0.0 | 0.0 | 0.00 | 0.37 | 0.37 | 95 | 1014.4 |
| 20260902231527 | 78 | 42 | 0.0 | 0.9 | 0.00 | 0.37 | 0.37 | 95 | 1014.4 |
| 20260902231027 | 78 | 190 | 0.0 | 0.9 | 0.00 | 0.37 | 0.37 | 95 | 1014.4 |
| 20260902230521 | 78 | 211 | 0.0 | 0.0 | 0.00 | 0.37 | 0.37 | 95 | 1014.5 |
| 20260902230020 | 77 | 25 | 0.0 | 0.9 | 0.00 | 0.37 | 0.37 | 95 | 1014.5 |
| 20260902225516 | 77 | 205 | 0.0 | 0.9 | 0.00 | 0.37 | 0.37 | 94 | 1014.7 |
| 20260902225009 | 77 | 111 | 0.0 | 1.7 | 0.00 | 0.37 | 0.37 | 94 | 1014.7 |
| 20260902224508 | 77 | 107 | 0.0 | 0.9 | 0.00 | 0.37 | 0.37 | 93 | 1014.7 |
| 20260902224005 | 77 | 18 | 1.7 | 2.6 | 0.02 | 0.37 | 0.37 | 91 | 1014.8 |
| 20260902223501 | 78 | 176 | 0.0 | 1.7 | 0.12 | 0.37 | 0.37 | 91 | 1014.3 |
| 20260902223000 | 79 | 15 | 2.6 | 3.5 | 0.09 | 0.37 | 0.37 | 90 | 1014.7 |
| 20260902222459 | 80 | 122 | 0.9 | 2.6 | 0.00 | 0.35 | 0.35 | 91 | 1014.7 |
| 20260902221958 | 80 | 27 | 1.7 | 2.6 | 0.00 | 0.35 | 0.35 | 93 | 1014.9 |
| 20260902221457 | 80 | 43 | 0.0 | 0.9 | 0.00 | 0.35 | 0.35 | 94 | 1014.7 |
| 20260902220954 | 80 | 271 | 0.0 | 0.0 | 0.00 | 0.35 | 0.35 | 94 | 1014.7 |
| 20260902220453 | 80 | 271 | 0.0 | 0.0 | 0.00 | 0.35 | 0.35 | 94 | 1014.6 |
| 20260902215942 | 80 | 211 | 0.0 | 0.9 | 0.00 | 0.35 | 0.35 | 95 | 1014.7 |
| 20260902215438 | 80 | 123 | 0.0 | 0.0 | 0.00 | 0.35 | 0.35 | 95 | 1014.6 |
| 20260902214934 | 80 | 105 | 0.0 | 0.0 | 0.00 | 0.35 | 0.35 | 94 | 1014.7 |
| 20260902214432 | 80 | 14 | 0.0 | 0.0 | 0.00 | 0.35 | 0.35 | 94 | 1014.5 |
| 20260902213927 | 80 | 85 | 0.0 | 0.0 | 0.00 | 0.35 | 0.35 | 95 | 1014.7 |
| 20260902213423 | 80 | 198 | 0.0 | 0.9 | 0.00 | 0.35 | 0.35 | 95 | 1014.6 |
| 20260902212921 | 80 | 127 | 0.0 | 0.0 | 0.00 | 0.35 | 0.35 | 95 | 1014.8 |
| 20260902212418 | 79 | 236 | 0.0 | 0.9 | 0.00 | 0.35 | 0.35 | 95 | 1014.6 |
| 20260902211914 | 79 | 123 | 0.0 | 1.7 | 0.00 | 0.35 | 0.35 | 94 | 1014.5 |
| 20260902211410 | 79 | 327 | 0.0 | 0.9 | 0.00 | 0.35 | 0.35 | 94 | 1014.6 |
| 20260902210905 | 78 | 47 | 0.0 | 0.9 | 0.00 | 0.35 | 0.35 | 94 | 1014.8 |
| 20260902210404 | 78 | 116 | 0.0 | 0.9 | 0.00 | 0.35 | 0.35 | 94 | 1014.6 |
| 20260902205903 | 78 | 56 | 0.0 | 0.9 | 0.00 | 0.35 | 0.35 | 94 | 1014.9 |
| 20260902205357 | 78 | 216 | 0.0 | 1.7 | 0.02 | 0.35 | 0.35 | 94 | 1014.9 |
| 20260902204854 | 78 | 123 | 1.7 | 2.6 | 0.21 | 0.35 | 0.35 | 93 | 1014.8 |
| 20260902204353 | 77 | 99 | 0.9 | 3.5 | 0.83 | 0.35 | 0.35 | 92 | 1014.8 |
| 20260902203849 | 78 | 82 | 1.7 | 2.6 | 1.65 | 0.32 | 0.32 | 91 | 1014.6 |
| 20260902203344 | 79 | 74 | 1.7 | 5.2 | 1.28 | 0.21 | 0.21 | 89 | 1015.0 |
| 20260902202843 | 81 | 81 | 5.2 | 5.2 | 0.26 | 0.04 | 0.04 | 86 | 1014.8 |
| 20260902202334 | 84 | 84 | 1.7 | 4.3 | 0.00 | 0.00 | 0.00 | 77 | 1014.6 |
| 20260902201831 | 86 | 76 | 2.6 | 3.5 | 0.00 | 0.00 | 0.00 | 77 | 1014.5 |
| 20260902201330 | 86 | 37 | 0.0 | 3.5 | 0.00 | 0.00 | 0.00 | 77 | 1014.4 |
| 20260902200826 | 86 | 87 | 1.7 | 4.3 | 0.00 | 0.00 | 0.00 | 77 | 1014.4 |
| 20260902200321 | 86 | 80 | 2.6 | 6.1 | 0.00 | 0.00 | 0.00 | 75 | 1014.5 |
| 20260902195816 | 87 | 193 | 3.5 | 7.8 | 0.00 | 0.00 | 0.00 | 75 | 1014.4 |
| 20260902195315 | 87 | 61 | 2.6 | 4.3 | 0.00 | 0.00 | 0.00 | 72 | 1014.5 |
| 20260902194810 | 88 | 58 | 3.5 | 4.3 | 0.00 | 0.00 | 0.00 | 72 | 1014.8 |
| 20260902194305 | 88 | 92 | 2.6 | 7.0 | 0.00 | 0.00 | 0.00 | 72 | 1014.6 |
| 20260902193800 | 89 | 43 | 5.2 | 5.2 | 0.00 | 0.00 | 0.00 | 70 | 1014.4 |
| 20260902193256 | 89 | 42 | 5.2 | 5.2 | 0.00 | 0.00 | 0.00 | 69 | 1014.6 |
| 20260902192755 | 91 | 96 | 2.6 | 5.2 | 0.00 | 0.00 | 0.00 | 67 | 1014.6 |
| 20260902192254 | 89 | 67 | 1.7 | 4.3 | 0.00 | 0.00 | 0.00 | 69 | 1014.5 |
| 20260902191753 | 89 | 83 | 1.7 | 4.3 | 0.00 | 0.00 | 0.00 | 70 | 1014.7 |
| 20260902191249 | 89 | 72 | 3.5 | 5.2 | 0.00 | 0.00 | 0.00 | 70 | 1015.0 |
| 20260902190744 | 89 | 75 | 3.5 | 6.1 | 0.00 | 0.00 | 0.00 | 68 | 1014.8 |
| 20260902190243 | 90 | 33 | 5.2 | 5.2 | 0.00 | 0.00 | 0.00 | 67 | 1015.0 |
| 20260902185739 | 90 | 80 | 2.6 | 5.2 | 0.00 | 0.00 | 0.00 | 66 | 1014.9 |
| 20260902185235 | 91 | 77 | 3.5 | 6.1 | 0.00 | 0.00 | 0.00 | 65 | 1014.9 |
| 20260902184731 | 92 | 48 | 5.2 | 5.2 | 0.00 | 0.00 | 0.00 | 64 | 1014.9 |
| 20260902184226 | 91 | 104 | 2.6 | 6.1 | 0.00 | 0.00 | 0.00 | 65 | 1015.2 |
| 20260902183722 | 91 | 104 | 2.6 | 8.7 | 0.00 | 0.00 | 0.00 | 65 | 1015.0 |
| 20260902183218 | 92 | 108 | 2.6 | 4.3 | 0.00 | 0.00 | 0.00 | 63 | 1014.8 |
| 20260902182714 | 92 | 63 | 3.5 | 7.0 | 0.00 | 0.00 | 0.00 | 63 | 1015.1 |
| 20260902182210 | 91 | 155 | 2.6 | 6.1 | 0.00 | 0.00 | 0.00 | 65 | 1015.1 |
| 20260902181705 | 92 | 86 | 2.6 | 7.0 | 0.00 | 0.00 | 0.00 | 64 | 1015.0 |
| 20260902181200 | 91 | 72 | 2.6 | 6.1 | 0.00 | 0.00 | 0.00 | 65 | 1015.1 |
| 20260902180700 | 91 | 104 | 3.5 | 4.3 | 0.00 | 0.00 | 0.00 | 64 | 1015.1 |
| 20260902180155 | 91 | 94 | 2.6 | 3.5 | 0.00 | 0.00 | 0.00 | 63 | 1015.2 |
| 20260902175656 | 91 | 116 | 1.7 | 5.2 | 0.00 | 0.00 | 0.00 | 64 | 1015.1 |
| 20260902175151 | 91 | 58 | 4.3 | 4.3 | 0.00 | 0.00 | 0.00 | 62 | 1015.2 |
| 20260902174647 | 90 | 49 | 1.7 | 5.2 | 0.00 | 0.00 | 0.00 | 64 | 1015.2 |
| 20260902174143 | 90 | 65 | 4.3 | 8.7 | 0.00 | 0.00 | 0.00 | 65 | 1015.1 |
| 20260902173638 | 90 | 136 | 2.6 | 4.3 | 0.00 | 0.00 | 0.00 | 66 | 1015.3 |
| 20260902173133 | 89 | 84 | 1.7 | 7.0 | 0.00 | 0.00 | 0.00 | 66 | 1015.3 |
| 20260902172632 | 91 | 95 | 3.5 | 8.7 | 0.00 | 0.00 | 0.00 | 65 | 1015.4 |
| 20260902172127 | 90 | 112 | 2.6 | 5.2 | 0.00 | 0.00 | 0.00 | 66 | 1015.2 |
| 20260902171622 | 91 | 8 | 1.7 | 3.5 | 0.00 | 0.00 | 0.00 | 67 | 1015.4 |
| 20260902171118 | 90 | 81 | 1.7 | 4.3 | 0.00 | 0.00 | 0.00 | 65 | 1015.4 |
| 20260902170614 | 90 | 87 | 1.7 | 5.2 | 0.00 | 0.00 | 0.00 | 66 | 1015.5 |
| 20260902170109 | 90 | 29 | 6.1 | 6.1 | 0.00 | 0.00 | 0.00 | 66 | 1015.4 |
| 20260902165608 | 89 | 111 | 2.6 | 7.0 | 0.00 | 0.00 | 0.00 | 68 | 1015.6 |
| 20260902165103 | 89 | 66 | 4.3 | 4.3 | 0.00 | 0.00 | 0.00 | 67 | 1015.6 |
| 20260902164558 | 90 | 101 | 2.6 | 4.3 | 0.00 | 0.00 | 0.00 | 66 | 1015.7 |
| 20260902164057 | 89 | 74 | 4.3 | 4.3 | 0.00 | 0.00 | 0.00 | 68 | 1015.8 |
| 20260902163553 | 89 | 102 | 1.7 | 5.2 | 0.00 | 0.00 | 0.00 | 67 | 1015.9 |
| 20260902163051 | 90 | 87 | 3.5 | 5.2 | 0.00 | 0.00 | 0.00 | 68 | 1015.9 |
| 20260902162545 | 90 | 346 | 2.6 | 9.6 | 0.00 | 0.00 | 0.00 | 67 | 1015.9 |
| 20260902162040 | 90 | 97 | 1.7 | 5.2 | 0.00 | 0.00 | 0.00 | 66 | 1015.9 |
| 20260902161540 | 89 | 68 | 2.6 | 4.3 | 0.00 | 0.00 | 0.00 | 68 | 1016.3 |
| 20260902161036 | 90 | 34 | 2.6 | 5.2 | 0.00 | 0.00 | 0.00 | 66 | 1016.4 |
| 20260902160532 | 90 | 29 | 1.7 | 5.2 | 0.00 | 0.00 | 0.00 | 67 | 1016.0 |
| 20260902160027 | 90 | 48 | 3.5 | 5.2 | 0.00 | 0.00 | 0.00 | 68 | 1016.2 |
| 20260902155520 | 90 | 140 | 2.6 | 3.5 | 0.00 | 0.00 | 0.00 | 70 | 1016.3 |
| 20260902155019 | 89 | 75 | 2.6 | 4.3 | 0.00 | 0.00 | 0.00 | 69 | 1016.3 |
| 20260902154515 | 88 | 87 | 1.7 | 6.1 | 0.00 | 0.00 | 0.00 | 70 | 1016.3 |
| 20260902154009 | 87 | 50 | 0.9 | 6.1 | 0.00 | 0.00 | 0.00 | 70 | 1016.5 |
| 20260902153508 | 88 | 75 | 2.6 | 3.5 | 0.00 | 0.00 | 0.00 | 70 | 1016.4 |
| 20260902153004 | 88 | 69 | 2.6 | 8.7 | 0.00 | 0.00 | 0.00 | 68 | 1016.5 |
| 20260902152501 | 87 | 79 | 1.7 | 4.3 | 0.00 | 0.00 | 0.00 | 71 | 1016.7 |
| 20260902151955 | 87 | 68 | 1.7 | 3.5 | 0.00 | 0.00 | 0.00 | 71 | 1016.4 |
| 20260902151451 | 87 | 54 | 2.6 | 5.2 | 0.00 | 0.00 | 0.00 | 71 | 1016.6 |
| 20260902150950 | 87 | 41 | 6.1 | 6.1 | 0.00 | 0.00 | 0.00 | 70 | 1016.4 |
| 20260902150446 | 87 | 65 | 2.6 | 6.1 | 0.00 | 0.00 | 0.00 | 71 | 1016.6 |